EW4939 Weather Reports


Display with metric or nautical units.
time (UTC)temp
F
wind
direction
speed
MPH
gust
MPH
rain 1hr
in
rain 24hr
in
rain mn
in
humidity
%
barometer
mb
20260904040001 82 196 0.0 1.0 0.00 0.00 0.00 77 1015.7
20260904035457 81 196 0.0 1.0 0.00 0.00 0.00 79 1015.4
20260904034955 81 196 1.0 1.0 0.00 0.00 0.00 80 1015.6
20260904034451 81 196 1.0 1.0 0.00 0.00 0.00 81 1015.4
20260904033947 81 196 0.0 1.0 0.00 0.00 0.00 81 1015.6
20260904033443 81 196 0.0 1.0 0.00 0.00 0.00 81 1015.7
20260904032939 81 196 0.0 1.0 0.00 0.00 0.00 81 1015.5
20260904032434 82 196 0.0 1.0 0.00 0.00 0.00 80 1015.5
20260904031933 82 196 1.0 1.0 0.00 0.00 0.00 78 1016.0
20260904031433 82 196 1.0 1.0 0.00 0.00 0.00 79 1015.6
20260904030930 81 196 1.0 1.0 0.00 0.00 0.00 79 1015.7
20260904030425 81 196 1.0 1.0 0.00 0.00 0.00 81 1015.7
20260904025920 81 196 0.0 1.0 0.00 0.00 0.00 81 1015.7
20260904025416 81 196 1.0 1.0 0.00 0.00 0.00 81 1015.6
20260904024916 81 197 1.0 1.0 0.00 0.00 0.00 81 1016.0
20260904024411 82 197 0.0 1.0 0.00 0.00 0.00 79 1015.7
20260904023907 82 197 0.0 1.0 0.00 0.00 0.00 79 1016.0
20260904023403 81 215 0.0 0.0 0.00 0.00 0.00 80 1016.0
20260904022902 81 6 0.0 1.0 0.00 0.00 0.00 80 1016.0
20260904022359 82 10 1.0 1.0 0.00 0.00 0.00 80 1015.6
20260904021855 82 11 0.0 1.0 0.00 0.00 0.00 80 1015.7
20260904021350 82 12 0.0 1.0 0.00 0.00 0.00 80 1015.7
20260904020846 82 18 1.0 1.0 0.00 0.00 0.00 80 1015.7
20260904020341 82 19 1.0 1.0 0.00 0.00 0.00 81 1015.6
20260904015839 82 19 1.0 1.0 0.00 0.00 0.00 81 1015.8
20260904015335 82 19 0.0 1.0 0.00 0.00 0.00 80 1015.8
20260904014833 82 19 0.0 0.0 0.00 0.00 0.00 80 1015.7
20260904014329 82 19 0.0 0.0 0.00 0.00 0.00 80 1016.0
20260904013824 81 19 0.0 0.0 0.00 0.00 0.00 80 1016.1
20260904013320 82 19 0.0 0.0 0.00 0.00 0.00 80 1016.0
20260904012816 82 19 0.0 0.0 0.00 0.00 0.00 79 1015.8
20260904012311 82 19 0.0 0.0 0.00 0.00 0.00 78 1016.0
20260904011810 82 19 0.0 0.0 0.00 0.00 0.00 78 1016.0
20260904011306 82 19 0.0 0.0 0.00 0.00 0.00 78 1015.7
20260904010805 83 19 0.0 0.0 0.00 0.00 0.00 78 1015.8
20260904010303 83 19 0.0 0.0 0.00 0.00 0.00 76 1015.8
20260904005803 83 19 0.0 0.0 0.00 0.00 0.00 76 1015.7
20260904005258 83 19 0.0 0.0 0.00 0.00 0.00 77 1015.6
20260904004753 83 19 0.0 0.0 0.00 0.00 0.00 76 1015.6
20260904004249 84 19 0.0 0.0 0.00 0.00 0.00 76 1015.5
20260904003743 83 19 0.0 0.0 0.00 0.00 0.00 76 1015.6
20260904003240 83 19 0.0 0.0 0.00 0.00 0.00 77 1015.3
20260904002735 84 19 0.0 0.0 0.00 0.00 0.00 78 1015.4
20260904002232 84 19 0.0 0.0 0.00 0.00 0.00 77 1015.3
20260904001726 84 19 0.0 0.0 0.00 0.00 0.00 76 1015.5
20260904001225 85 19 0.0 0.0 0.00 0.00 0.00 76 1015.1
20260904000720 85 19 0.0 0.0 0.00 0.00 0.00 75 1015.3
20260904000215 85 19 0.0 1.0 0.00 0.00 0.00 75 1015.3
20260903235715 85 18 0.0 0.0 0.00 0.00 0.00 75 1015.3
20260903235212 86 18 0.0 0.0 0.00 0.00 0.00 75 1015.2
20260903234705 86 18 0.0 0.0 0.00 0.00 0.00 77 1015.2
20260903234203 87 18 0.0 0.0 0.00 0.00 0.00 73 1015.3
20260903233658 88 18 0.0 0.0 0.00 0.00 0.00 72 1015.1
20260903233154 89 18 0.0 0.0 0.00 0.00 0.00 69 1015.0
20260903232653 90 17 0.0 0.0 0.00 0.00 0.00 62 1014.9
20260903232149 91 223 0.0 0.0 0.00 0.00 0.00 62 1015.1
20260903231648 91 188 0.0 1.0 0.00 0.00 0.00 62 1015.0
20260903231143 92 184 0.0 1.0 0.00 0.00 0.00 61 1014.8
20260903230639 92 226 1.0 2.0 0.00 0.00 0.00 57 1015.0
20260903230138 92 184 0.0 2.0 0.00 0.00 0.00 58 1015.0
20260903225635 93 263 0.0 2.0 0.00 0.00 0.00 57 1015.1
20260903225131 93 207 0.0 1.0 0.00 0.00 0.00 56 1015.2
20260903224627 93 198 0.0 1.0 0.00 0.00 0.00 56 1015.2
20260903224123 94 222 0.0 3.0 0.00 0.00 0.00 55 1014.8
20260903223618 94 174 0.0 3.0 0.00 0.00 0.00 54 1015.2
20260903223116 95 200 1.0 1.0 0.00 0.00 0.00 53 1014.9
20260903222611 95 319 0.0 1.0 0.00 0.00 0.00 53 1015.0
20260903222110 95 211 0.0 3.0 0.00 0.00 0.00 52 1014.7
20260903221606 95 198 1.0 2.0 0.00 0.00 0.00 52 1014.8
20260903221103 95 8 1.0 2.0 0.00 0.00 0.00 52 1014.7
20260903220603 95 332 1.0 3.0 0.00 0.00 0.00 52 1014.5
20260903215601 96 222 2.0 3.0 0.00 0.00 0.00 51 1014.3
20260903215056 96 192 0.0 4.0 0.00 0.00 0.00 51 1014.5
20260903214555 95 153 1.0 4.0 0.00 0.00 0.00 51 1014.3
20260903214051 95 202 1.0 6.0 0.00 0.00 0.00 51 1014.4
20260903213546 96 203 1.0 3.0 0.00 0.00 0.00 50 1014.5
20260903213042 97 186 3.0 4.0 0.00 0.00 0.00 48 1014.2
20260903212537 96 289 1.0 3.0 0.00 0.00 0.00 51 1014.3
20260903212033 96 210 1.0 3.0 0.00 0.00 0.00 51 1014.5
20260903211527 95 234 1.0 1.0 0.00 0.00 0.00 50 1014.4
20260903211024 95 197 1.0 4.0 0.00 0.00 0.00 51 1014.5
20260903210525 96 228 2.0 7.0 0.00 0.00 0.00 51 1014.6
20260903210021 95 298 1.0 1.0 0.00 0.00 0.00 51 1014.4
20260903205519 96 217 2.0 3.0 0.00 0.00 0.00 49 1014.4
20260903205014 96 284 1.0 3.0 0.00 0.00 0.00 50 1014.5
20260903204510 96 330 2.0 4.0 0.00 0.00 0.00 50 1014.5
20260903204005 96 311 0.0 4.0 0.00 0.00 0.00 52 1014.7
20260903203501 95 286 2.0 4.0 0.00 0.00 0.00 50 1014.8
20260903203000 95 152 0.0 3.0 0.00 0.00 0.00 51 1015.0
20260903202456 96 205 1.0 7.0 0.00 0.00 0.00 51 1014.9
20260903201951 96 196 1.0 3.0 0.00 0.00 0.00 51 1014.9
20260903201446 95 178 0.0 3.0 0.00 0.00 0.00 51 1015.1
20260903200945 95 305 1.0 2.0 0.00 0.00 0.00 52 1015.0
20260903200440 94 213 4.0 4.0 0.00 0.00 0.00 51 1015.2
20260903195935 94 272 0.0 2.0 0.00 0.00 0.00 52 1015.3
20260903195432 94 258 1.0 2.0 0.00 0.00 0.00 51 1015.6
20260903194932 95 250 2.0 2.0 0.00 0.00 0.00 51 1015.3
20260903194427 96 305 2.0 3.0 0.00 0.00 0.00 50 1015.5
20260903193922 95 282 1.0 2.0 0.00 0.00 0.00 51 1015.6
20260903193419 96 353 1.0 2.0 0.00 0.00 0.00 51 1015.6
20260903192914 96 276 0.0 2.0 0.00 0.00 0.00 50 1015.6
20260903192410 95 324 1.0 2.0 0.00 0.00 0.00 52 1016.0
20260903191906 95 53 0.0 3.0 0.00 0.00 0.00 51 1015.6
20260903191402 96 312 1.0 3.0 0.00 0.00 0.00 51 1015.7
20260903190901 96 230 2.0 3.0 0.00 0.00 0.00 52 1016.0
20260903190355 95 209 1.0 2.0 0.00 0.00 0.00 51 1015.7
20260903185855 95 356 3.0 4.0 0.00 0.00 0.00 51 1016.0
20260903185350 94 347 0.0 3.0 0.00 0.00 0.00 52 1015.8
20260903184846 93 317 2.0 3.0 0.00 0.00 0.00 54 1016.0
20260903184343 94 279 0.0 2.0 0.00 0.00 0.00 53 1016.1
20260903183842 95 213 2.0 4.0 0.00 0.00 0.00 52 1016.1
20260903183337 95 326 2.0 3.0 0.00 0.00 0.00 51 1016.1
20260903182837 95 313 2.0 3.0 0.00 0.00 0.00 51 1016.0
20260903182336 95 318 2.0 3.0 0.00 0.00 0.00 52 1016.2
20260903181831 95 191 1.0 3.0 0.00 0.00 0.00 51 1016.2
20260903181326 94 218 2.0 4.0 0.00 0.00 0.00 51 1016.1
20260903180825 95 185 3.0 4.0 0.00 0.00 0.00 52 1016.2
20260903180320 94 315 1.0 2.0 0.00 0.00 0.00 53 1016.1
20260903175819 94 185 0.0 3.0 0.00 0.00 0.00 54 1016.0
20260903175318 94 307 1.0 4.0 0.00 0.00 0.00 53 1016.1
20260903174814 95 201 1.0 3.0 0.00 0.00 0.00 53 1016.2
20260903174309 94 292 1.0 3.0 0.00 0.00 0.00 55 1016.4
20260903173808 94 177 1.0 2.0 0.00 0.00 0.00 55 1016.4
20260903173304 94 344 4.0 6.0 0.00 0.00 0.00 55 1016.5
20260903172800 94 344 3.0 3.0 0.00 0.00 0.00 54 1016.6
20260903172254 93 337 2.0 3.0 0.00 0.00 0.00 55 1016.4
20260903171749 93 195 1.0 3.0 0.00 0.00 0.00 56 1016.4
20260903171245 94 184 2.0 4.0 0.00 0.00 0.00 56 1016.7
20260903170743 93 277 0.0 1.0 0.00 0.00 0.00 57 1016.6
20260903170240 93 204 0.0 2.0 0.00 0.00 0.00 55 1016.6
20260903165737 93 278 2.0 3.0 0.00 0.00 0.00 56 1016.8
20260903165232 92 152 2.0 3.0 0.00 0.00 0.00 59 1016.7
20260903164727 92 152 1.0 2.0 0.00 0.00 0.00 59 1016.9
20260903164223 92 240 2.0 3.0 0.00 0.00 0.00 60 1016.9
20260903163722 92 182 2.0 3.0 0.00 0.00 0.00 60 1017.1
20260903163219 92 198 1.0 2.0 0.00 0.00 0.00 60 1017.0
20260903162715 92 154 2.0 2.0 0.00 0.00 0.00 59 1017.1
20260903162210 92 191 0.0 1.0 0.00 0.00 0.00 59 1017.0
20260903161706 91 351 0.0 1.0 0.00 0.00 0.00 59 1017.2
20260903161201 91 309 2.0 2.0 0.00 0.00 0.00 59 1017.1
20260903160658 91 258 1.0 2.0 0.00 0.00 0.00 62 1017.2
20260903160156 91 317 2.0 2.0 0.00 0.00 0.00 61 1017.1
20260903155655 90 341 1.0 2.0 0.00 0.00 0.00 63 1017.2
20260903155150 90 287 1.0 2.0 0.00 0.00 0.00 63 1017.3
20260903154646 90 210 1.0 2.0 0.00 0.00 0.00 63 1017.3
20260903154142 90 197 1.0 3.0 0.00 0.00 0.00 63 1017.2
20260903153638 89 177 1.0 3.0 0.00 0.00 0.00 64 1017.1
20260903153133 89 228 2.0 3.0 0.00 0.00 0.00 64 1017.1
20260903152629 89 192 4.0 4.0 0.00 0.00 0.00 65 1017.1
20260903152125 89 340 1.0 2.0 0.00 0.00 0.00 66 1017.2
20260903151624 89 246 1.0 3.0 0.00 0.00 0.00 66 1017.1
20260903151120 88 346 2.0 2.0 0.00 0.00 0.00 68 1017.1
20260903150620 88 340 0.0 4.0 0.00 0.00 0.00 68 1017.3
20260903150115 88 352 2.0 2.0 0.00 0.00 0.00 68 1017.2
20260903145614 87 238 1.0 4.0 0.00 0.00 0.00 68 1017.3
20260903145109 88 336 2.0 3.0 0.00 0.00 0.00 68 1017.1
20260903144608 88 313 0.0 2.0 0.00 0.00 0.00 69 1017.2
20260903144105 87 173 1.0 3.0 0.00 0.00 0.00 69 1017.2
20260903143601 87 261 2.0 2.0 0.00 0.00 0.00 68 1017.1
20260903143056 87 281 0.0 2.0 0.00 0.00 0.00 68 1017.1
20260903142551 87 341 0.0 2.0 0.00 0.00 0.00 68 1017.1
20260903142049 87 231 0.0 1.0 0.00 0.00 0.00 69 1017.0
20260903141549 87 187 0.0 2.0 0.00 0.00 0.00 69 1017.0
20260903141044 86 357 1.0 2.0 0.00 0.00 0.00 69 1017.0
20260903140539 86 191 0.0 3.0 0.00 0.00 0.00 70 1016.8
20260903140035 86 307 1.0 1.0 0.00 0.00 0.00 71 1017.1
20260903135531 86 294 1.0 3.0 0.00 0.00 0.00 70 1017.1
20260903135031 86 167 1.0 1.0 0.00 0.00 0.00 70 1017.0
20260903134530 86 280 0.0 2.0 0.00 0.00 0.00 70 1017.2
20260903134026 85 170 1.0 4.0 0.00 0.00 0.00 71 1017.2
20260903133524 85 218 0.0 2.0 0.00 0.00 0.00 71 1017.2
20260903133019 85 295 0.0 4.0 0.00 0.00 0.00 72 1017.3
20260903132514 84 212 0.0 3.0 0.00 0.00 0.00 73 1017.4
20260903132009 84 156 0.0 2.0 0.00 0.00 0.00 75 1017.4
20260903131504 83 159 0.0 0.0 0.00 0.00 0.00 75 1017.4
20260903131003 83 297 0.0 1.0 0.00 0.00 0.00 75 1017.4
20260903130458 82 201 0.0 0.0 0.00 0.00 0.00 76 1017.3
20260903125956 82 235 0.0 1.0 0.00 0.00 0.00 76 1017.7
20260903125456 81 248 0.0 0.0 0.00 0.00 0.00 79 1017.6
20260903124951 80 181 0.0 1.0 0.00 0.00 0.00 83 1017.6
20260903124446 78 173 0.0 2.0 0.00 0.00 0.00 84 1017.5
20260903123945 78 192 0.0 0.0 0.00 0.00 0.00 86 1017.5
20260903123439 78 191 0.0 0.0 0.00 0.00 0.00 86 1017.6
20260903122938 77 191 0.0 0.0 0.00 0.00 0.00 87 1017.5
20260903122432 77 191 0.0 0.0 0.00 0.00 0.00 88 1017.5
20260903121931 77 191 0.0 0.0 0.00 0.00 0.00 88 1017.5
20260903121426 77 191 0.0 0.0 0.00 0.00 0.00 89 1017.7
20260903120923 77 191 0.0 0.0 0.00 0.00 0.00 90 1017.5
20260903120421 76 191 0.0 0.0 0.00 0.00 0.00 89 1017.5
20260903115921 77 191 0.0 0.0 0.00 0.00 0.00 89 1017.5
20260903115420 77 191 0.0 0.0 0.00 0.00 0.00 89 1017.7
20260903114920 77 191 0.0 0.0 0.00 0.00 0.00 89 1017.5
20260903114416 78 191 0.0 0.0 0.00 0.00 0.00 88 1017.5
20260903113911 78 191 0.0 1.0 0.00 0.00 0.00 85 1017.3
20260903113407 78 192 0.0 0.0 0.00 0.00 0.00 84 1017.3
20260903112902 78 191 0.0 1.0 0.00 0.00 0.00 82 1017.3
20260903112358 78 191 0.0 1.0 0.00 0.00 0.00 82 1017.3
20260903111857 78 177 0.0 1.0 0.00 0.00 0.00 83 1017.2
20260903111357 78 289 0.0 1.0 0.00 0.00 0.00 84 1017.2
20260903110853 78 172 0.0 1.0 0.00 0.00 0.00 83 1017.2
20260903110348 78 171 0.0 1.0 0.00 0.00 0.00 84 1017.0
20260903105843 78 172 0.0 1.0 0.00 0.00 0.00 83 1017.0
20260903105339 78 288 0.0 1.0 0.00 0.00 0.00 87 1017.0
20260903104838 78 187 0.0 1.0 0.00 0.00 0.00 84 1016.9
20260903104333 78 187 0.0 0.0 0.00 0.00 0.00 83 1016.6
20260903103830 78 187 0.0 0.0 0.00 0.00 0.00 83 1016.7
20260903103326 79 260 0.0 0.0 0.00 0.00 0.00 83 1016.8
20260903102822 78 270 0.0 1.0 0.00 0.00 0.00 83 1016.9
20260903102321 78 194 0.0 0.0 0.00 0.00 0.00 84 1016.8
20260903101820 78 193 0.0 0.0 0.00 0.00 0.00 84 1016.7
20260903101316 78 193 0.0 0.0 0.00 0.00 0.00 85 1016.7
20260903100812 78 189 0.0 0.0 0.00 0.00 0.00 87 1016.7
20260903100311 78 189 0.0 0.0 0.00 0.00 0.00 84 1016.7
20260903095809 78 189 0.0 0.0 0.00 0.00 0.00 84 1016.8
20260903095305 78 189 0.0 0.0 0.00 0.00 0.00 84 1016.7
20260903094759 78 189 0.0 0.0 0.00 0.00 0.00 85 1016.8
20260903094253 77 185 0.0 1.0 0.00 0.00 0.00 87 1016.7
20260903093749 77 185 0.0 0.0 0.00 0.00 0.00 88 1016.6
20260903093244 76 185 1.0 1.0 0.00 0.00 0.00 89 1016.6
20260903092743 75 185 0.0 0.0 0.00 0.00 0.00 92 1016.5
20260903092239 75 185 0.0 1.0 0.00 0.00 0.00 93 1016.8
20260903091737 75 185 0.0 0.0 0.00 0.00 0.00 94 1016.7
20260903091232 75 185 0.0 1.0 0.00 0.00 0.00 93 1016.7
20260903090727 75 185 0.0 1.0 0.00 0.00 0.00 93 1016.8
20260903090226 75 185 0.0 1.0 0.00 0.00 0.00 93 1016.9
20260903085725 75 185 0.0 0.0 0.00 0.00 0.00 93 1016.7
20260903085220 75 185 0.0 0.0 0.00 0.00 0.00 93 1016.7
20260903084718 75 185 0.0 0.0 0.00 0.00 0.00 93 1016.5
20260903084213 75 185 0.0 0.0 0.00 0.00 0.00 92 1016.6
20260903083709 76 185 0.0 0.0 0.00 0.00 0.00 92 1016.6
20260903083209 76 185 0.0 0.0 0.00 0.00 0.00 92 1016.6
20260903082703 76 185 0.0 0.0 0.00 0.00 0.00 91 1016.5
20260903082159 76 185 0.0 1.0 0.00 0.00 0.00 92 1016.7
20260903081659 76 185 0.0 0.0 0.00 0.00 0.00 92 1016.7
20260903081155 76 185 0.0 0.0 0.00 0.00 0.00 93 1016.5
20260903080651 76 185 0.0 0.0 0.00 0.00 0.00 93 1016.6
20260903080148 76 185 0.0 0.0 0.00 0.00 0.00 92 1016.7
20260903075647 76 185 0.0 0.0 0.00 0.00 0.00 91 1016.5
20260903075142 76 185 0.0 0.0 0.00 0.00 0.00 91 1016.4
20260903074641 76 185 0.0 0.0 0.00 0.00 0.00 91 1016.6
20260903074137 77 185 0.0 0.0 0.00 0.00 0.00 91 1016.3
20260903073637 77 185 0.0 0.0 0.00 0.00 0.00 91 1016.6
20260903073133 77 185 0.0 0.0 0.00 0.00 0.00 91 1016.6
20260903072629 77 185 0.0 0.0 0.00 0.00 0.00 91 1016.6
20260903072125 77 185 0.0 0.0 0.00 0.00 0.00 91 1016.5
20260903071621 77 185 0.0 0.0 0.00 0.00 0.00 89 1016.4
20260903071117 77 185 0.0 0.0 0.00 0.00 0.00 89 1016.5
20260903070616 77 185 0.0 0.0 0.00 0.00 0.00 89 1016.4
20260903070113 77 185 0.0 1.0 0.00 0.00 0.00 89 1016.5
20260903065611 77 185 1.0 1.0 0.00 0.00 0.00 89 1016.5
20260903065106 77 185 0.0 0.0 0.00 0.00 0.00 89 1016.4
20260903064606 77 185 0.0 0.0 0.00 0.00 0.00 89 1016.5
20260903064101 77 185 0.0 0.0 0.00 0.00 0.00 88 1016.4
20260903063556 77 185 0.0 0.0 0.00 0.00 0.00 89 1016.7
20260903063052 77 185 0.0 0.0 0.00 0.00 0.00 89 1016.4
20260903062547 77 185 0.0 0.0 0.00 0.00 0.00 89 1016.6
20260903062043 77 185 0.0 0.0 0.00 0.00 0.00 90 1016.6
20260903061538 77 185 0.0 0.0 0.00 0.00 0.00 90 1016.6
20260903061037 77 185 0.0 0.0 0.00 0.00 0.00 89 1016.5
20260903060537 78 185 0.0 0.0 0.00 0.00 0.00 89 1016.6
20260903060032 78 185 0.0 0.0 0.00 0.00 0.00 88 1016.3
20260903055530 78 185 0.0 0.0 0.00 0.00 0.00 88 1016.5
20260903055029 78 185 0.0 0.0 0.00 0.00 0.00 89 1016.5
20260903054524 78 185 0.0 0.0 0.00 0.00 0.00 88 1016.5
20260903054020 78 185 0.0 0.0 0.00 0.00 0.00 86 1016.5
20260903053519 79 185 0.0 0.0 0.00 0.00 0.00 88 1016.4
20260903053016 79 185 0.0 0.0 0.00 0.00 0.00 87 1016.3
20260903052512 80 185 0.0 0.0 0.00 0.00 0.00 83 1016.4
20260903052008 80 185 0.0 0.0 0.00 0.00 0.00 83 1016.3
20260903051508 81 185 0.0 0.0 0.00 0.00 0.00 81 1016.3
20260903051004 79 181 0.0 1.0 0.00 0.00 0.00 83 1016.2
20260903050502 79 181 0.0 0.0 0.00 0.00 0.00 84 1016.2
20260903045957 79 181 0.0 0.0 0.00 0.00 0.00 85 1016.4
20260903045453 79 181 0.0 0.0 0.00 0.00 0.00 84 1016.4
20260903044949 79 181 0.0 0.0 0.00 0.00 0.00 86 1016.2
20260903044444 79 181 0.0 0.0 0.00 0.00 0.00 84 1016.2
20260903043940 79 181 0.0 1.0 0.00 0.00 0.00 84 1016.2
20260903043436 79 181 0.0 0.0 0.00 0.00 0.00 86 1016.4
20260903042934 79 181 0.0 0.0 0.00 0.00 0.00 86 1016.2
20260903042430 79 181 0.0 0.0 0.00 0.00 0.00 84 1016.1
20260903041926 79 181 0.0 0.0 0.00 0.00 0.00 84 1016.2
20260903041422 79 181 0.0 0.0 0.00 0.00 0.00 84 1016.3
20260903040917 80 181 0.0 0.0 0.00 0.00 0.00 83 1016.3
20260903040416 80 181 0.0 0.0 0.00 0.00 0.00 83 1016.2